WAT2918 SKCG-SEGU

Flight info

Callsign WAT2918
Flight time 1h 54m
Altitude 35000
Route CTG2B CTG DCT ANRON UQ102 PUKAM/N0453F360 DCT ENSOL DCT MIDEX UW1 DAKAB DAKAB1
Aircraft A320/M-SDE3FGHIRWY/LB1

Departure

Time 2026-04-22 12:38
Airport Rafael Nuñez International Airport (SKCG)

Arrival

Time 2026-04-22 14:32
Airport José Joaquín de Olmedo International Airport (SEGU)
Time Latitude Longitude Altitude Speed Heading
2026-04-22 12:27 10.44647 -75.51546 25 ft 0 kts 271°
2026-04-22 12:31 10.44647 -75.51544 25 ft 1 kts 271°
2026-04-22 12:32 10.44647 -75.51529 25 ft 2 kts 271°
2026-04-22 12:32 10.44646 -75.51498 25 ft 2 kts 272°
2026-04-22 12:32 10.44643 -75.51484 25 ft 2 kts 295°
2026-04-22 12:33 10.44636 -75.51471 24 ft 2 kts 311°
2026-04-22 12:33 10.44624 -75.51461 24 ft 2 kts 329°
2026-04-22 12:33 10.44610 -75.51455 24 ft 2 kts 346°
2026-04-22 12:33 10.44601 -75.51453 24 ft 0 kts 358°
2026-04-22 12:34 10.44594 -75.51453 24 ft 0 kts
2026-04-22 12:35 10.44595 -75.51453 24 ft 1 kts
2026-04-22 12:35 10.44625 -75.51437 24 ft 8 kts 52°
2026-04-22 12:35 10.44646 -75.51356 22 ft 15 kts 82°
2026-04-22 12:35 10.44723 -75.51269 20 ft 21 kts
2026-04-22 12:36 10.44889 -75.51265 19 ft 25 kts
2026-04-22 12:36 10.45082 -75.51252 19 ft 29 kts
2026-04-22 12:36 10.45221 -75.51279 20 ft 15 kts 356°
2026-04-22 12:36 10.45223 -75.51247 19 ft 7 kts 180°
2026-04-22 12:37 10.45181 -75.51251 19 ft 10 kts 183°
2026-04-22 12:37 10.44824 -75.51265 20 ft 91 kts 182°
2026-04-22 12:37 10.43945 -75.51305 23 ft 157 kts 182°
2026-04-22 12:37 10.42799 -75.51364 549 ft 168 kts 181°
2026-04-22 12:38 10.41621 -75.51376 1283 ft 171 kts 176°
2026-04-22 12:38 10.40438 -75.51386 1976 ft 178 kts 176°
2026-04-22 12:38 10.39146 -75.51361 2567 ft 193 kts 174°
2026-04-22 12:38 10.37750 -75.51306 3144 ft 211 kts 175°
2026-04-22 12:39 10.36207 -75.51238 3604 ft 230 kts 175°
2026-04-22 12:39 10.32729 -75.51097 4599 ft 266 kts 176°
2026-04-22 12:39 10.30841 -75.51025 5231 ft 277 kts 176°
2026-04-22 12:40 10.28910 -75.50950 6038 ft 280 kts 176°
2026-04-22 12:40 10.26939 -75.50874 6855 ft 283 kts 176°
2026-04-22 12:40 10.24983 -75.50798 7639 ft 285 kts 176°
2026-04-22 12:40 10.22965 -75.50720 8414 ft 288 kts 177°
2026-04-22 12:41 10.20967 -75.50836 9152 ft 292 kts 191°
2026-04-22 12:41 10.19019 -75.51472 9891 ft 295 kts 203°
2026-04-22 12:41 10.17153 -75.52364 10497 ft 303 kts 205°
2026-04-22 12:41 10.15188 -75.53342 10838 ft 320 kts 206°
2026-04-22 12:42 10.13119 -75.54372 11183 ft 336 kts 206°
2026-04-22 12:42 10.11016 -75.55415 11769 ft 341 kts 205°
2026-04-22 12:42 10.08858 -75.56479 12462 ft 344 kts 205°
2026-04-22 12:42 10.06707 -75.57537 13135 ft 346 kts 205°
2026-04-22 12:43 10.04524 -75.58606 13772 ft 349 kts 205°
2026-04-22 12:43 10.02330 -75.59679 14370 ft 352 kts 205°
2026-04-22 12:43 10.00103 -75.60768 14949 ft 356 kts 205°
2026-04-22 12:43 9.97859 -75.61865 15519 ft 360 kts 205°
2026-04-22 12:44 9.95597 -75.62971 16081 ft 364 kts 205°
2026-04-22 12:44 9.93310 -75.64087 16622 ft 367 kts 205°
2026-04-22 12:44 9.90992 -75.65220 17138 ft 371 kts 205°
2026-04-22 12:44 9.88652 -75.66359 17655 ft 375 kts 205°
2026-04-22 12:45 9.86255 -75.67523 18168 ft 378 kts 205°
2026-04-22 12:45 9.83885 -75.68675 18668 ft 381 kts 205°
2026-04-22 12:45 9.81490 -75.69839 19191 ft 383 kts 205°
2026-04-22 12:45 9.79076 -75.71015 19694 ft 385 kts 205°
2026-04-22 12:46 9.76654 -75.72195 20178 ft 387 kts 205°
2026-04-22 12:46 9.74188 -75.73398 20645 ft 390 kts 205°
2026-04-22 12:46 9.71735 -75.74593 21101 ft 392 kts 205°
2026-04-22 12:46 9.69251 -75.75804 21557 ft 394 kts 205°
2026-04-22 12:47 9.66766 -75.77014 21995 ft 396 kts 205°
2026-04-22 12:47 9.64271 -75.78230 22422 ft 399 kts 205°
2026-04-22 12:47 9.61779 -75.79443 22866 ft 401 kts 205°
2026-04-22 12:47 9.59253 -75.80673 23318 ft 402 kts 205°
2026-04-22 12:48 9.56727 -75.81902 23771 ft 404 kts 205°
2026-04-22 12:48 9.54201 -75.83133 24217 ft 405 kts 205°
2026-04-22 12:48 9.51651 -75.84373 24620 ft 408 kts 205°
2026-04-22 12:48 9.49079 -75.85627 25029 ft 410 kts 205°
2026-04-22 12:49 9.46493 -75.86887 25450 ft 412 kts 205°
2026-04-22 12:49 9.43896 -75.88151 25831 ft 414 kts 205°
2026-04-22 12:49 9.41269 -75.89429 26215 ft 416 kts 205°
2026-04-22 12:49 9.38661 -75.90699 26592 ft 418 kts 205°
2026-04-22 12:50 9.36035 -75.91977 26963 ft 420 kts 205°
2026-04-22 12:50 9.33403 -75.93258 27325 ft 422 kts 206°
2026-04-22 12:50 9.30742 -75.94553 27673 ft 424 kts 206°
2026-04-22 12:50 9.28056 -75.95859 28003 ft 427 kts 206°
2026-04-22 12:51 9.25349 -75.97176 28342 ft 429 kts 206°
2026-04-22 12:51 9.22646 -75.98490 28679 ft 431 kts 206°
2026-04-22 12:51 9.19934 -75.99809 29008 ft 433 kts 206°
2026-04-22 12:51 9.17199 -76.01139 29332 ft 435 kts 206°
2026-04-22 12:52 9.14446 -76.02477 29675 ft 436 kts 206°
2026-04-22 12:52 9.11732 -76.03796 30116 ft 435 kts 206°
2026-04-22 12:52 9.09017 -76.05115 30585 ft 433 kts 206°
2026-04-22 12:52 9.06294 -76.06436 31003 ft 432 kts 206°
2026-04-22 12:53 9.03590 -76.07749 31414 ft 432 kts 206°
2026-04-22 12:53 9.00874 -76.09068 31833 ft 430 kts 206°
2026-04-22 12:53 8.98165 -76.10384 32236 ft 429 kts 206°
2026-04-22 12:53 8.95468 -76.11694 32624 ft 428 kts 206°
2026-04-22 12:54 8.92784 -76.12997 33000 ft 428 kts 205°
2026-04-22 12:54 8.90079 -76.14310 33400 ft 427 kts 206°
2026-04-22 12:54 8.87417 -76.15596 33721 ft 427 kts 205°
2026-04-22 12:54 8.84717 -76.16898 33979 ft 429 kts 206°
2026-04-22 12:55 8.82920 -76.17765 34147 ft 430 kts 206°
2026-04-22 12:55 8.79293 -76.19518 34521 ft 431 kts 206°
2026-04-22 12:55 8.76586 -76.20830 34793 ft 431 kts 206°
2026-04-22 12:55 8.73863 -76.22148 34932 ft 433 kts 206°
2026-04-22 12:56 8.71141 -76.23467 34941 ft 432 kts 206°
2026-04-22 12:56 8.65718 -76.26096 34949 ft 432 kts 206°
2026-04-22 12:57 8.60276 -76.28732 34955 ft 433 kts 206°
2026-04-22 12:57 8.54808 -76.31383 34960 ft 433 kts 206°
2026-04-22 12:58 8.49341 -76.34032 34967 ft 433 kts 205°
2026-04-22 12:58 8.43923 -76.36658 34972 ft 432 kts 205°
2026-04-22 12:59 8.38479 -76.39294 34972 ft 433 kts 205°
2026-04-22 12:59 8.33020 -76.41940 34973 ft 432 kts 205°
2026-04-22 13:00 8.27572 -76.44575 34972 ft 433 kts 205°
2026-04-22 13:00 8.22000 -76.46855 34973 ft 432 kts 198°
2026-04-22 13:01 8.16201 -76.48521 34984 ft 432 kts 194°
2026-04-22 13:01 8.10356 -76.50008 34993 ft 433 kts 194°
2026-04-22 13:02 8.04488 -76.51502 34997 ft 433 kts 194°
2026-04-22 13:02 7.98612 -76.53001 34997 ft 433 kts 194°
2026-04-22 13:03 7.92783 -76.54489 35004 ft 433 kts 194°
2026-04-22 13:03 7.86892 -76.55990 35005 ft 433 kts 194°
2026-04-22 13:04 7.81055 -76.57471 35008 ft 433 kts 194°
2026-04-22 13:04 7.75185 -76.58966 35010 ft 433 kts 194°
2026-04-22 13:05 7.69332 -76.60459 35007 ft 432 kts 194°
2026-04-22 13:05 7.63476 -76.61951 35011 ft 433 kts 194°
2026-04-22 13:06 7.57606 -76.63448 35009 ft 433 kts 194°
2026-04-22 13:06 7.51738 -76.64943 35009 ft 432 kts 194°
2026-04-22 13:07 7.45913 -76.66450 35004 ft 432 kts 194°
2026-04-22 13:07 7.40063 -76.67961 34998 ft 432 kts 194°
2026-04-22 13:08 7.34207 -76.69460 34990 ft 433 kts 194°
2026-04-22 13:08 7.28352 -76.70954 34989 ft 433 kts 193°
2026-04-22 13:09 7.22467 -76.72452 34990 ft 433 kts 193°
2026-04-22 13:09 7.16611 -76.73942 34988 ft 434 kts 194°
2026-04-22 13:10 7.10718 -76.75441 35011 ft 438 kts 193°
2026-04-22 13:10 7.04697 -76.76971 34998 ft 449 kts 194°
2026-04-22 13:11 6.98556 -76.78532 34998 ft 458 kts 194°
2026-04-22 13:11 6.92265 -76.80132 34992 ft 465 kts 194°
2026-04-22 13:12 6.85948 -76.81735 34994 ft 469 kts 193°
2026-04-22 13:12 6.79593 -76.83343 34991 ft 469 kts 193°
2026-04-22 13:13 6.73259 -76.84949 34991 ft 469 kts 193°
2026-04-22 13:13 6.66886 -76.86565 34986 ft 469 kts 194°
2026-04-22 13:14 6.60531 -76.88178 34979 ft 468 kts 193°
2026-04-22 13:14 6.54179 -76.89790 34981 ft 468 kts 193°
2026-04-22 13:15 6.47839 -76.91399 34985 ft 468 kts 193°
2026-04-22 13:15 6.41553 -76.92993 34993 ft 468 kts 193°
2026-04-22 13:16 6.35166 -76.94614 34984 ft 468 kts 193°
2026-04-22 13:16 6.28861 -76.96212 34986 ft 469 kts 193°
2026-04-22 13:17 6.22498 -76.97827 34988 ft 469 kts 193°
2026-04-22 13:17 6.16160 -76.99434 34988 ft 469 kts 193°
2026-04-22 13:18 6.09869 -77.01263 34982 ft 469 kts 198°
2026-04-22 13:18 6.03689 -77.03437 34988 ft 469 kts 199°
2026-04-22 13:19 5.97499 -77.05630 34988 ft 469 kts 199°
2026-04-22 13:19 5.91291 -77.07828 34988 ft 469 kts 198°
2026-04-22 13:20 5.85134 -77.10001 34990 ft 469 kts 198°
2026-04-22 13:20 5.78972 -77.12169 34987 ft 469 kts 198°
2026-04-22 13:21 5.72764 -77.14359 34978 ft 469 kts 198°
2026-04-22 13:21 5.66615 -77.16531 34979 ft 469 kts 198°
2026-04-22 13:22 5.60432 -77.18715 34981 ft 469 kts 198°
2026-04-22 13:22 5.54271 -77.20892 34985 ft 469 kts 198°
2026-04-22 13:23 5.48086 -77.23074 34992 ft 469 kts 198°
2026-04-22 13:23 5.41908 -77.25254 34991 ft 469 kts 198°
2026-04-22 13:24 5.35759 -77.27425 34984 ft 468 kts 198°
2026-04-22 13:24 5.29580 -77.29605 34979 ft 469 kts 198°
2026-04-22 13:25 5.23391 -77.31789 34972 ft 469 kts 198°
2026-04-22 13:25 5.17212 -77.33968 34965 ft 469 kts 198°
2026-04-22 13:26 5.10993 -77.36160 34962 ft 469 kts 198°
2026-04-22 13:26 5.04848 -77.38327 34957 ft 469 kts 198°
2026-04-22 13:27 4.98614 -77.40524 34954 ft 470 kts 198°
2026-04-22 13:27 4.92417 -77.42709 34956 ft 470 kts 198°
2026-04-22 13:28 4.86227 -77.44886 34960 ft 470 kts 198°
2026-04-22 13:28 4.79996 -77.47070 34961 ft 470 kts 198°
2026-04-22 13:29 4.73821 -77.49239 34961 ft 471 kts 198°
2026-04-22 13:29 4.67616 -77.51424 34961 ft 471 kts 198°
2026-04-22 13:30 4.61409 -77.53609 34961 ft 471 kts 198°
2026-04-22 13:30 4.55202 -77.55794 34960 ft 471 kts 198°
2026-04-22 13:31 4.48987 -77.57981 34960 ft 471 kts 198°
2026-04-22 13:31 4.42767 -77.60170 34960 ft 471 kts 198°
2026-04-22 13:32 4.36587 -77.62344 34960 ft 471 kts 198°
2026-04-22 13:32 4.30336 -77.64542 34960 ft 471 kts 198°
2026-04-22 13:33 4.24133 -77.66743 34960 ft 471 kts 198°
2026-04-22 13:33 4.17935 -77.68951 34960 ft 471 kts 198°
2026-04-22 13:34 4.11693 -77.71157 34960 ft 471 kts 197°
2026-04-22 13:34 4.05524 -77.73329 34960 ft 471 kts 197°
2026-04-22 13:35 3.99284 -77.75523 34960 ft 472 kts 197°
2026-04-22 13:35 3.93039 -77.77718 34960 ft 472 kts 197°
2026-04-22 13:36 3.86829 -77.79896 34960 ft 471 kts 198°
2026-04-22 13:36 3.80616 -77.82070 34960 ft 472 kts 197°
2026-04-22 13:37 3.74353 -77.84265 34959 ft 472 kts 197°
2026-04-22 13:37 3.68127 -77.86449 34959 ft 473 kts 197°
2026-04-22 13:38 3.61860 -77.88650 34959 ft 473 kts 197°
2026-04-22 13:38 3.52500 -77.91936 34956 ft 473 kts 197°
2026-04-22 13:39 3.46245 -77.94131 34950 ft 473 kts 197°
2026-04-22 13:39 3.40014 -77.96319 34943 ft 473 kts 197°
2026-04-22 13:40 3.33758 -77.98513 34944 ft 473 kts 197°
2026-04-22 13:40 3.27515 -78.00703 34942 ft 473 kts 197°
2026-04-22 13:41 3.21262 -78.02898 34939 ft 473 kts 197°
2026-04-22 13:41 3.15041 -78.05078 34938 ft 474 kts 197°
2026-04-22 13:42 3.08800 -78.07269 34940 ft 474 kts 197°
2026-04-22 13:42 3.02543 -78.09463 34939 ft 474 kts 197°
2026-04-22 13:43 2.96260 -78.11665 34941 ft 474 kts 197°
2026-04-22 13:43 2.89995 -78.13863 34940 ft 474 kts 197°
2026-04-22 13:44 2.83736 -78.16049 34942 ft 474 kts 197°
2026-04-22 13:44 2.77483 -78.18233 34942 ft 474 kts 197°
2026-04-22 13:45 2.71233 -78.20421 34943 ft 474 kts 197°
2026-04-22 13:45 2.64985 -78.22609 34944 ft 474 kts 197°
2026-04-22 13:46 2.58732 -78.24800 34946 ft 475 kts 197°
2026-04-22 13:46 2.52450 -78.27001 34947 ft 475 kts 197°
2026-04-22 13:47 2.46182 -78.29198 34948 ft 475 kts 197°
2026-04-22 13:47 2.39939 -78.31385 34950 ft 475 kts 197°
2026-04-22 13:48 2.33669 -78.33581 34954 ft 475 kts 197°
2026-04-22 13:48 2.27420 -78.35770 34959 ft 476 kts 197°
2026-04-22 13:49 2.21160 -78.37962 34961 ft 476 kts 197°
2026-04-22 13:49 2.14877 -78.40163 34963 ft 475 kts 197°
2026-04-22 13:50 2.08632 -78.42348 34962 ft 475 kts 197°
2026-04-22 13:50 2.02369 -78.44542 34963 ft 475 kts 197°
2026-04-22 13:51 1.96079 -78.46745 34962 ft 476 kts 197°
2026-04-22 13:51 1.89779 -78.48949 34970 ft 476 kts 197°
2026-04-22 13:52 1.83521 -78.51131 34973 ft 476 kts 197°
2026-04-22 13:52 1.77255 -78.53319 34977 ft 476 kts 197°
2026-04-22 13:53 1.70955 -78.55524 34979 ft 476 kts 197°
2026-04-22 13:53 1.64607 -78.57745 34983 ft 477 kts 197°
2026-04-22 13:54 1.58319 -78.59947 34985 ft 477 kts 197°
2026-04-22 13:54 1.52046 -78.62144 34987 ft 478 kts 197°
2026-04-22 13:55 1.45740 -78.64356 34991 ft 478 kts 197°
2026-04-22 13:55 1.39457 -78.66579 35000 ft 478 kts 197°
2026-04-22 13:56 1.33164 -78.68801 35003 ft 478 kts 197°
2026-04-22 13:56 1.26813 -78.70906 35002 ft 477 kts 196°
2026-04-22 13:57 1.20480 -78.72950 35002 ft 477 kts 196°
2026-04-22 13:57 1.14147 -78.75002 35012 ft 478 kts 196°
2026-04-22 13:58 1.07761 -78.77080 35023 ft 478 kts 196°
2026-04-22 13:58 1.01416 -78.79147 35026 ft 478 kts 196°
2026-04-22 13:59 0.95076 -78.81213 35016 ft 478 kts 196°
2026-04-22 13:59 0.88731 -78.83282 35025 ft 478 kts 196°
2026-04-22 14:00 0.82353 -78.85349 35022 ft 478 kts 196°
2026-04-22 14:00 0.76023 -78.87405 35020 ft 478 kts 196°
2026-04-22 14:01 0.69678 -78.89470 35026 ft 478 kts 196°
2026-04-22 14:01 0.63346 -78.91532 35032 ft 478 kts 196°
2026-04-22 14:02 0.56982 -78.93607 35030 ft 478 kts 196°
2026-04-22 14:02 0.50612 -78.95681 35032 ft 477 kts 196°
2026-04-22 14:03 0.44307 -78.97735 35050 ft 477 kts 196°
2026-04-22 14:03 0.37947 -78.99804 35042 ft 477 kts 196°
2026-04-22 14:04 0.31594 -79.01875 35052 ft 477 kts 196°
2026-04-22 14:04 0.25274 -79.03934 35055 ft 477 kts 195°
2026-04-22 14:05 0.18942 -79.05998 35063 ft 477 kts 195°
2026-04-22 14:06 0.09483 -79.09079 35076 ft 476 kts 195°
2026-04-22 14:06 0.03181 -79.11135 35067 ft 460 kts 195°
2026-04-22 14:06 0.00194 -79.12113 35071 ft 444 kts 195°
2026-04-22 14:07 -0.02748 -79.13073 35077 ft 441 kts 195°
2026-04-22 14:07 -0.08605 -79.15007 35086 ft 441 kts 196°
2026-04-22 14:08 -0.14429 -79.17049 34551 ft 447 kts 197°
2026-04-22 14:08 -0.17385 -79.18086 33800 ft 447 kts 197°
2026-04-22 14:08 -0.20340 -79.19125 33110 ft 446 kts 197°
2026-04-22 14:08 -0.23272 -79.20155 32475 ft 445 kts 197°
2026-04-22 14:09 -0.26212 -79.21186 31803 ft 446 kts 197°
2026-04-22 14:09 -0.29168 -79.22223 31137 ft 445 kts 197°
2026-04-22 14:09 -0.32095 -79.23251 30476 ft 445 kts 198°
2026-04-22 14:09 -0.34998 -79.24270 29802 ft 445 kts 198°
2026-04-22 14:10 -0.37927 -79.25298 29216 ft 442 kts 198°
2026-04-22 14:10 -0.40823 -79.26315 28762 ft 437 kts 198°
2026-04-22 14:10 -0.43698 -79.27328 28296 ft 433 kts 198°
2026-04-22 14:10 -0.46528 -79.28324 27822 ft 429 kts 198°
2026-04-22 14:11 -0.49356 -79.29320 27347 ft 426 kts 198°
2026-04-22 14:11 -0.52133 -79.30296 26873 ft 422 kts 198°
2026-04-22 14:11 -0.54904 -79.31270 26408 ft 419 kts 198°
2026-04-22 14:11 -0.57664 -79.32239 25949 ft 415 kts 198°
2026-04-22 14:12 -0.60389 -79.33195 25499 ft 412 kts 198°
2026-04-22 14:12 -0.63096 -79.34147 25046 ft 409 kts 198°
2026-04-22 14:12 -0.65794 -79.35095 24594 ft 406 kts 198°
2026-04-22 14:12 -0.68470 -79.36036 24150 ft 403 kts 198°
2026-04-22 14:13 -0.71094 -79.36958 23720 ft 400 kts 198°
2026-04-22 14:13 -0.73745 -79.37891 23253 ft 397 kts 198°
2026-04-22 14:13 -0.76335 -79.38801 22800 ft 395 kts 198°
2026-04-22 14:13 -0.78935 -79.39717 22346 ft 392 kts 198°
2026-04-22 14:14 -0.81509 -79.40620 21925 ft 389 kts 198°
2026-04-22 14:14 -0.84076 -79.41519 21515 ft 387 kts 198°
2026-04-22 14:14 -0.86607 -79.42402 21074 ft 385 kts 198°
2026-04-22 14:14 -0.89116 -79.43278 20644 ft 382 kts 199°
2026-04-22 14:15 -0.91648 -79.44162 20218 ft 379 kts 199°
2026-04-22 14:15 -0.94123 -79.45028 19810 ft 376 kts 199°
2026-04-22 14:15 -0.96605 -79.45897 19372 ft 373 kts 199°
2026-04-22 14:15 -0.99043 -79.46750 18960 ft 370 kts 200°
2026-04-22 14:16 -1.01449 -79.47592 18560 ft 368 kts 200°
2026-04-22 14:16 -1.03876 -79.48443 18136 ft 366 kts 200°
2026-04-22 14:16 -1.06283 -79.49287 17677 ft 364 kts 200°
2026-04-22 14:16 -1.08680 -79.50128 17248 ft 361 kts 201°
2026-04-22 14:17 -1.11047 -79.50958 16814 ft 358 kts 200°
2026-04-22 14:17 -1.13392 -79.51778 16381 ft 356 kts 200°
2026-04-22 14:17 -1.15746 -79.52600 15942 ft 354 kts 200°
2026-04-22 14:17 -1.18085 -79.53417 15493 ft 353 kts 200°
2026-04-22 14:18 -1.20393 -79.54226 15053 ft 351 kts 200°
2026-04-22 14:18 -1.22723 -79.55042 14563 ft 350 kts 200°
2026-04-22 14:18 -1.25004 -79.55841 14183 ft 348 kts 200°
2026-04-22 14:18 -1.27298 -79.56645 13751 ft 347 kts 200°
2026-04-22 14:19 -1.29601 -79.57453 13291 ft 347 kts 201°
2026-04-22 14:19 -1.31856 -79.58244 12829 ft 346 kts 201°
2026-04-22 14:19 -1.34143 -79.59049 12386 ft 345 kts 200°
2026-04-22 14:19 -1.36396 -79.59842 11950 ft 343 kts 200°
2026-04-22 14:20 -1.40888 -79.61420 11127 ft 340 kts 200°
2026-04-22 14:20 -1.43141 -79.62212 10683 ft 339 kts 200°
2026-04-22 14:20 -1.45371 -79.62994 10243 ft 336 kts 200°
2026-04-22 14:21 -1.49644 -79.64490 10102 ft 308 kts 199°
2026-04-22 14:21 -1.51661 -79.65131 9841 ft 300 kts 198°
2026-04-22 14:22 -1.55606 -79.66366 9214 ft 293 kts 197°
2026-04-22 14:22 -1.57566 -79.66976 8879 ft 291 kts 197°
2026-04-22 14:22 -1.61394 -79.68162 8254 ft 285 kts 197°
2026-04-22 14:23 -1.63285 -79.68748 7961 ft 283 kts 197°
2026-04-22 14:23 -1.65184 -79.69334 7669 ft 282 kts 197°
2026-04-22 14:23 -1.67067 -79.69914 7303 ft 282 kts 197°
2026-04-22 14:23 -1.68942 -79.70492 6965 ft 280 kts 197°
2026-04-22 14:24 -1.70808 -79.71066 6649 ft 278 kts 197°
2026-04-22 14:24 -1.72669 -79.71640 6348 ft 275 kts 197°
2026-04-22 14:24 -1.74496 -79.72205 6063 ft 272 kts 197°
2026-04-22 14:24 -1.76294 -79.72759 5779 ft 270 kts 197°
2026-04-22 14:25 -1.78100 -79.73316 5464 ft 268 kts 197°
2026-04-22 14:25 -1.79889 -79.73868 5177 ft 266 kts 197°
2026-04-22 14:25 -1.81641 -79.74409 4900 ft 264 kts 197°
2026-04-22 14:25 -1.83401 -79.74953 4607 ft 263 kts 197°
2026-04-22 14:26 -1.85157 -79.75495 4301 ft 262 kts 197°
2026-04-22 14:26 -1.86892 -79.76032 3989 ft 261 kts 197°
2026-04-22 14:26 -1.88642 -79.76572 3689 ft 260 kts 197°
2026-04-22 14:26 -1.90366 -79.77103 3413 ft 257 kts 197°
2026-04-22 14:27 -1.92096 -79.77638 3145 ft 256 kts 197°
2026-04-22 14:27 -1.93785 -79.78159 2858 ft 255 kts 197°
2026-04-22 14:27 -1.95484 -79.78682 2581 ft 253 kts 197°
2026-04-22 14:27 -1.97186 -79.79208 2296 ft 251 kts 197°
2026-04-22 14:28 -1.98826 -79.79716 2216 ft 239 kts 197°
2026-04-22 14:28 -2.00378 -79.80196 2187 ft 225 kts 197°
2026-04-22 14:28 -2.01839 -79.80650 2161 ft 211 kts 199°
2026-04-22 14:28 -2.03131 -79.81183 2198 ft 190 kts 206°
2026-04-22 14:29 -2.04257 -79.81792 2154 ft 173 kts 208°
2026-04-22 14:29 -2.05255 -79.82336 2086 ft 153 kts 209°
2026-04-22 14:29 -2.06156 -79.82841 1871 ft 143 kts 210°
2026-04-22 14:29 -2.07024 -79.83338 1710 ft 142 kts 210°
2026-04-22 14:30 -2.07885 -79.83834 1543 ft 141 kts 210°
2026-04-22 14:30 -2.08743 -79.84330 1372 ft 141 kts 210°
2026-04-22 14:30 -2.09593 -79.84821 1190 ft 139 kts 210°
2026-04-22 14:30 -2.10439 -79.85307 1003 ft 139 kts 210°
2026-04-22 14:31 -2.11282 -79.85789 822 ft 139 kts 210°
2026-04-22 14:31 -2.12130 -79.86278 639 ft 138 kts 211°
2026-04-22 14:31 -2.12967 -79.86762 463 ft 138 kts 211°
2026-04-22 14:31 -2.13794 -79.87240 287 ft 137 kts 211°
2026-04-22 14:32 -2.14623 -79.87717 108 ft 135 kts 211°
2026-04-22 14:32 -2.15425 -79.88182 28 ft 116 kts 211°
2026-04-22 14:32 -2.15886 -79.88453 34 ft 52 kts 212°
2026-04-22 14:32 -2.15976 -79.88594 36 ft 12 kts 322°
2026-04-22 14:33 -2.15896 -79.88569 35 ft 13 kts 26°
2026-04-22 14:33 -2.15811 -79.88522 34 ft 14 kts 38°
2026-04-22 14:33 -2.15738 -79.88509 34 ft 10 kts 311°
2026-04-22 14:33 -2.15718 -79.88545 34 ft 0 kts 298°